Showing default

COSMOS 2212, 22183

Orbit data source: Space-Track

COSMOS 2212, 22183 is a payload satellite owned by VKS (CIS) in LEO that was launched on Tue, 20 Oct 1992 UTC via a TSIKLON-3 launch vehicle from the Plesetsk Missile And Space Complex (PKMTR). Payloads include a variety of satellites, spacecraft, and rockets equipped with specific instruments for various scientific and technological missions. These include communications satellites like Starlink; space stations such as the ISS; scientific satellites like the Hubble; Earth observation satellites from companies like Planet Labs, Umbra, and HawkEye 360; GPS; miniature CubeSats for education and research; and military/defense satellites.

Loading next visibility...
COSMOS 2212 details
Identifier
22183, 1992-068B
Orbit
LEO
Last TLE update13 hours ago
Origin
Flag of CISVKS (CIS)
ManufacturerNPO PM
MissionDefense Communications
Bus & MotorSTRELA-3, Unknown motor
Mass225 kg wet, 225 kg dry
Launch date (UTC)
1992-10-20 (32 years ago)
Launch vehicle
TSIKLON-3
Launch site
Plesetsk Missile And Space Complex (PKMTR)
Object type
Payload
Rocket body
Debris
Shape & HBRCyl, 1.6 m
Radar Cross Section1.257 m², Medium (>0.1 m² and < 1m²)

Expand to show TLE details & history

TLE from 13 hours ago
0 COSMOS 2212
1 22183U 92068B   25046.94729655  .00000053  00000-0  23488-3 0  9991
2 22183  82.5862 279.0083 0002147 172.6455 187.4669 12.63131352490193
Epoch: 2025-02-15T22:44Z
Definitive object data (Epoch: 2025-02-15T22:44:06.421Z)
Latitude0.00001°
Longitude151.79415°
Altitude1,414.436 km
Speed7.153 km/s
True Right ascension18h 36m 01s
True Declination0° 00' 00"
Sunlit
Object was in daylight at TLE epoch
Visualization TLE readout
Latitude-29.23766°
Longitude147.28821°
Altitude1,422.387 km
Speed7.148 km/s
Apparent Right ascension21h 18m 34s
Apparent Declination-54° 23' 01"
Sunlit
Object is in daylight
Visualization observer readout
Local Sidereal Time14:39:38
Azimuth134.311° SE
Elevation-36.665°
Doppler factor1
Orbital elements
Apogee altitude1,409.037 km
Perigee altitude1,405.694 km
Semi-major axis7,785.503 km
Eccentricity0.0002147
Inclination82.5862°
RAAN279.0083°
Arg. of periapsis172.6455°
True anomaly187.4637°
Mean anomaly187.4669°
Eccentric anomaly187.4653°
Mean motion3.15946 °/min
BSTAR0.00023488
Orbital period113.94 mins
Loading maneuver chart data...
Loading historical data...
Loading historical data...
Loading historical data...
Loading historical data...
Loading historical data...
Loading historical data...
Loading historical data...

COSMOS 2212 Visibility forecast

Observer location: undefined°, undefined

Span
Click to sort rows by Start time (UTC) header in descending order
Start Az.
Max El. time (UTC)
Max El. Az.
Max El.
End time (UTC)
End Az.
7 mins2025-02-16 14:06:12.543Z102.647° ESE2025-02-16 14:10:12.543Z73.05° E13.482°2025-02-16 14:13:12.543Z51.002° ENE
15 mins2025-02-16 15:56:12.543Z179.839° S2025-02-16 16:03:12.543Z108.342° ESE44.622°2025-02-16 16:11:12.543Z9.869° NNE
9 mins2025-02-16 17:55:12.543Z260.982° W2025-02-16 17:59:12.543Z294.723° NW19.157°2025-02-16 18:04:12.543Z335.136° NNW
13 mins2025-02-17 01:58:12.543Z15.836° NNE2025-02-17 02:04:12.543Z71.795° E28.133°2025-02-17 02:11:12.543Z131.284° SE
14 mins2025-02-17 03:53:12.543Z338.247° N2025-02-17 03:59:12.543Z273.486° WNW38.219°2025-02-17 04:07:12.543Z197.555° SSW
|